SCP
0 0 0 0 0 0 0 0 0 0 0 0 0 0 0 0 0 0 0 0 0 0 0 0 0 0 0 0 0 0 0 0 -0 -0 -0 -0 -0 0
0 0 0 0 0 0 0 0 0 0 0 0 0 0 0 0 0 0 0 0 0 0 0 0 0 0 0 0 0 0 0 0 -0 -0 -0 -0 -0 0
0 0 0 0 0 0 0 0 0 0 0 0 0 0 0 0 0 0 0 0 0 0 0 0 0 0 0 0 0 0 0 0 0 -0 -0 -0 0 0
0 0 0 0 0 0 0 0 0 0 0 0 0 0 0 0 0 0 0 0 0 0 0 0 0 0 0 0 0 0 0 0 0 0 -0 0 0 0
0 0 0 0 0 0 0 0 0 0 0 0 0 0 0 0 0 0 0 0 0 0 0 0 0 0 0 0 0 0 0 0 0 0 0 0 0 0
0 0 0 0 0 0 0 0 0 0 0 0 0 0 0 0 0 0 0 0 0 0 0 0 0 0 0 0 0 0 0 0 0 0 0 -0 0 0
0 0 0 0 0 0 0 0 0 0 0 0 0 0 0 0 0 0 0 0 0 0 0 0 0 0 0 0 0 0 0 0 0 0 0 0 0 0
0 0 0 0 0 0 0 0 0 0 0 0 0 0 0 0 0 0 0 0 0 0 0 0 0 0 0 0 0 0 0 0 0 0 0 0 0 0
0 0 0 0 0 0 0 0 0 0 0 0 0 0 0 0 0 0 0 0 0 0 0 0 0 0 0 0 0 0 0 0 0 0 0 0 0 0
0 0 0 0 0 0 0 0 0 0 0 0 0 0 0 0 0 0 0 0 0 0 0 0 0 0 0 0 0 0 0 0 0 0 0 0 0 0
0 0 0 0 0 0 0 0 0 0 0 0 0 0 0 0 0 0 0 0 0 0 0 0 0 0 0 0 0 0 0 0 0 0 0 0 0 0
0 0 0 0 0 0 0 0 0 0 0 0 0 0 0 0 0 0 0 0 0 0 0 0 0 0 0 0 0 0 0 0 0 0 0 0 0 0
0 0 0 0 0 0 0 0 0 0 0 0 0 0 0 0 0 0 0 0 0 0 0 0 0 0 0 0 0 0 0 0 0 0 0 0 0 0
0 0 0 0 0 0 0 0 0 0 0 0 0 0 0 0 0 0 0 0 0 0 0 0 0 0 0 0 0 0 0 0 0 0 0 0 0 0
0 0 0 0 0 0 0 0 0 0 0 0 0 0 0 0 0 0 0 0 0 0 0 0 0 0 0 0 0 0 0 0 0 0 0 0 0 0
0 0 0 0 0 0 0 0 0 0 0 0 0 0 0 0 0 -0 0 0 0 0 0 0 0 0 0 0 0 0 0 0 0 0 0 0 0 0
0 0 0 0 0 0 0 0 0 0 0 0 0 0 0 0 0 -0 0 0 0 0 0 0 0 0 0 0 0 0 -0 -0 -0 -0 0 0 0 0
0 0 0 0 0 0 0 0 0 0 0 0 0 0 0 -0 -0 0 0 0 0 0 0 0 0 0 0 0 0 0 -0 -0 -0 -0 0 0 0 0
0 0 0 0 0 0 0 0 0 0 0 0 0 0 0 0 0 0 0 0 0 0 0 0 0 0 0 0 0 0 0 0 -0 -0 0 0 0 0
0 0 0 0 0 0 0 0 0 0 0 0 0 0 0 0 0 0 0 0 0 0 0 0 0 0 0 0 0 0 0 0 0 0 0 0 0 0
0 0 0 0 0 0 0 0 0 0 0 0 0 0 0 0 0 0 0 0 0 0 0 0 0 0 0 0 0 0 0 0 -0 -0 0 0 0 0
0 0 0 0 0 0 0 0 0 0 0 0 0 0 0 0 0 0 0 0 0 0 0 0 0 0 0 0 0 0 0 0 0 0 0 0 0 0
0 0 0 0 0 0 0 0 0 0 0 0 0 0 0 0 0 0 0 0 0 0 0 0 0 0 0 0 0 0 0 0 0 0 0 0 0 0
Wind_Speed
2 2 2 3 3 3 3 4 4 1 3 4 4 2 2 2 1 2 2 2 4 4 2 4 6 9 11 11 14 16 19 20 16 15 15 16 17 17
3 1 1 2 4 4 1 2 3 3 6 3 3 2 1 1 2 3 3 3 2 2 5 7 8 9 10 13 14 15 14 12 13 13 13 13 13 14
4 3 1 1 1 3 3 1 3 5 4 3 2 2 2 2 2 2 3 2 2 5 6 8 9 9 11 13 14 13 12 14 14 14 13 12 12 13
3 1 2 4 4 4 3 3 2 2 3 3 2 2 4 3 3 3 3 3 3 4 6 8 10 11 12 13 13 12 12 13 14 14 14 14 14 14
2 4 4 4 3 3 3 3 2 2 2 3 3 3 3 2 2 1 1 1 3 4 6 7 7 7 8 8 7 7 8 10 12 13 14 14 13 14
4 5 4 3 3 4 4 4 4 4 3 2 2 2 3 2 2 2 2 1 2 2 5 6 8 10 10 10 9 8 9 10 11 10 11 12 13 14
5 5 5 8 8 5 4 5 6 4 3 3 3 2 2 1 1 1 2 1 1 0 1 3 4 6 6 9 10 12 12 12 12 12 12 12 13 14
5 5 6 8 8 7 6 5 5 4 4 3 3 3 3 2 2 1 1 1 1 0 2 1 3 4 4 5 9 11 15 16 15 14 15 14 15 16
5 5 6 7 7 6 8 9 8 8 5 2 2 3 3 4 2 2 1 0 1 1 2 2 3 3 3 2 6 10 11 13 16 16 15 15 15 15
4 4 6 8 10 8 7 7 6 6 6 3 2 2 2 3 2 1 1 1 1 2 2 0 1 2 3 2 3 4 6 8 12 15 13 12 13 14
4 5 6 7 9 8 7 7 7 7 6 5 6 6 4 3 4 3 3 3 2 2 1 1 0 0 2 2 2 3 4 5 6 9 11 8 8 8
4 5 8 8 9 12 8 7 8 9 8 6 5 5 5 5 3 2 1 1 0 1 1 0 0 1 1 1 2 3 2 3 3 3 6 8 7 4
5 5 6 10 11 11 7 4 3 6 7 5 5 5 5 5 4 3 2 2 1 2 2 1 0 0 1 0 2 2 2 2 2 2 3 5 8 6
4 4 6 11 12 12 10 10 9 7 6 7 6 7 6 5 5 6 6 4 3 3 4 4 1 1 0 1 1 2 2 2 2 2 3 4 6 5
5 7 8 9 9 7 9 12 10 6 6 6 5 4 4 4 4 6 9 7 4 3 2 4 3 1 1 1 1 2 1 1 1 1 2 1 2 4
8 8 8 6 5 5 4 5 5 5 5 4 3 4 7 8 7 5 5 8 6 4 4 2 1 2 2 3 2 2 2 1 2 1 2 1 3 2
4 3 4 4 5 6 6 5 5 6 5 4 4 5 5 5 5 6 6 7 6 5 3 3 3 1 1 2 3 4 2 2 3 1 2 3 6 8
3 3 3 4 4 4 4 5 6 6 5 4 4 4 3 4 4 2 1 4 3 3 2 2 4 5 5 3 1 1 2 2 3 3 3 3 4 2
2 1 2 3 4 4 4 4 5 5 5 6 5 4 4 4 5 5 5 4 4 2 2 2 0 1 2 4 5 1 2 2 2 3 4 2 5 7
1 2 2 2 3 3 3 2 3 4 4 5 5 6 6 4 4 5 5 5 5 4 5 6 5 3 2 1 3 4 2 1 1 2 2 3 3 4
1 2 2 3 3 2 2 3 3 3 3 3 3 3 3 3 3 4 5 6 6 5 6 7 10 11 2 3 2 4 3 1 1 1 3 4 3 1
5 4 4 4 3 3 3 3 4 4 3 3 3 4 4 3 3 3 4 4 4 4 3 2 4 6 5 2 2 4 4 4 3 2 1 3 5 7
6 5 5 4 4 3 3 4 4 3 2 3 3 3 4 3 4 4 3 2 2 3 4 5 3 4 5 5 5 2 4 4 3 3 3 2 2 3
Wind_Direction
319 33 15 329 293 252 210 195 181 199 269 260 257 239 206 166 122 115 106 39 33 19 55 91 89 108 127 145 159 163 161 173 193 192 191 198 202 209
304 324 302 331 315 303 246 176 156 195 244 240 259 250 222 125 136 133 126 107 117 130 121 109 109 112 121 128 134 141 157 174 176 178 187 197 200 208
272 280 268 129 315 352 351 343 192 197 215 252 247 232 208 183 155 155 144 168 210 194 157 140 141 148 151 146 150 155 166 164 164 172 181 190 199 206
240 202 45 49 27 7 337 331 336 267 221 246 260 231 221 198 185 183 173 182 222 211 179 169 167 169 170 170 171 173 166 164 170 175 182 194 202 208
67 51 38 42 26 354 348 344 325 303 259 241 256 241 236 201 194 185 172 181 242 186 165 180 182 173 179 188 178 165 166 170 179 187 190 197 203 211
56 58 45 29 13 354 359 358 351 355 342 308 283 274 253 235 171 161 159 204 237 163 165 174 178 181 183 188 192 193 192 188 187 198 203 202 207 211
55 43 27 10 3 353 359 358 352 357 347 344 335 337 325 325 258 162 139 169 31 301 118 135 158 168 178 189 196 200 196 194 193 198 211 214 218 222
49 27 13 3 354 4 351 348 341 357 359 349 339 349 350 339 336 3 146 126 124 217 111 150 153 160 168 180 197 205 195 189 194 200 207 212 219 224
59 41 27 12 17 30 26 20 7 15 25 24 22 348 339 347 342 348 15 133 215 168 108 159 177 163 151 173 204 215 207 201 195 199 207 213 221 227
61 59 47 30 24 34 37 18 358 351 351 3 23 332 325 333 344 335 356 47 34 19 48 159 169 164 153 182 234 208 195 211 214 196 202 212 224 231
16 20 36 44 22 31 40 17 6 355 343 330 289 273 277 348 3 5 26 41 4 343 4 94 153 166 171 184 197 217 217 200 212 199 169 181 213 229
14 12 26 38 40 35 34 19 16 349 346 7 0 335 328 340 14 66 72 73 57 296 266 114 339 50 330 138 154 172 183 190 205 203 159 153 164 181
26 4 1 21 31 30 48 40 351 322 343 16 27 23 355 334 323 302 251 192 182 252 235 164 271 212 202 189 149 168 196 200 176 162 165 158 163 188
21 352 351 8 17 13 9 11 25 24 3 8 18 18 359 339 329 329 304 273 231 217 201 176 204 202 166 236 211 193 192 196 177 159 142 147 154 187
3 348 357 7 14 15 12 7 8 19 29 25 12 3 307 310 355 14 4 338 303 291 244 203 207 206 179 214 229 251 211 89 69 104 92 189 180 174
4 345 345 335 358 2 10 14 11 15 21 14 0 355 357 2 5 20 22 339 332 334 345 331 287 193 194 221 210 228 213 227 227 174 134 299 280 50
335 349 353 351 2 357 354 1 14 20 23 11 10 19 16 360 355 14 1 327 303 301 330 358 356 16 251 238 217 228 207 209 214 224 45 38 36 51
31 13 341 350 2 1 11 16 27 21 4 10 19 5 8 1 354 356 287 277 279 298 294 343 31 16 2 331 260 224 219 207 185 182 165 123 105 135
61 33 4 25 40 36 43 49 45 21 8 12 17 10 15 17 35 32 8 342 335 1 351 343 15 137 44 342 318 336 252 241 152 163 168 161 155 172
70 132 112 86 79 73 68 76 73 62 53 34 13 5 8 23 25 20 15 4 345 354 32 14 351 303 206 170 304 315 31 332 230 158 129 98 85 110
128 132 143 141 134 117 92 74 58 52 51 55 29 18 358 9 24 23 10 1 357 347 16 22 339 315 323 71 322 303 314 11 329 161 130 116 117 164
175 177 171 166 153 137 120 105 88 65 58 55 32 3 349 360 356 17 47 17 345 334 327 339 350 355 25 354 270 285 310 333 341 39 106 179 172 185
181 182 174 169 162 143 132 128 122 108 77 64 49 22 7 2 343 334 2 61 7 333 332 331 346 30 27 351 313 300 342 350 333 332 325 333 70 105